TimeAKST,TemperatureF,Dew PointF,Humidity,Sea Level PressureIn,VisibilityMPH,Wind Direction,Wind SpeedMPH,Gust SpeedMPH,PrecipitationIn,Events,Conditions,WindDirDegrees,DateUTC
12:16 AM,-45.4,-9999,N/A,29.54,5.0,Calm,Calm,-,N/A,,Clear,0,2012-12-18 09:16:00
12:36 AM,-45.4,-9999,N/A,29.54,4.0,Calm,Calm,-,N/A,,Clear,0,2012-12-18 09:36:00
12:56 AM,-45.4,-9999,N/A,29.54,10.0,Calm,Calm,-,N/A,,Clear,0,2012-12-18 09:56:00
1:16 AM,-45.4,-9999,N/A,29.53,10.0,Calm,Calm,-,N/A,,Clear,0,2012-12-18 10:16:00
1:36 AM,-9999,-9999,N/A,29.52,4.0,Calm,Calm,-,N/A,,Clear,0,2012-12-18 10:36:00
1:56 AM,-45.4,-9999,N/A,29.52,1.8,Calm,Calm,-,N/A,,Clear,0,2012-12-18 10:56:00
2:16 AM,-45.4,-9999,N/A,29.51,1.5,Calm,Calm,-,N/A,,Clear,0,2012-12-18 11:16:00
2:36 AM,-9999,-9999,N/A,29.50,2.5,Calm,Calm,-,N/A,,Clear,0,2012-12-18 11:36:00
3:16 AM,-45.4,-9999,N/A,29.50,2.5,Calm,Calm,-,N/A,,Clear,0,2012-12-18 12:16:00
3:36 AM,-45.4,-9999,N/A,29.49,6.0,Calm,Calm,-,N/A,,Clear,0,2012-12-18 12:36:00
3:56 AM,-9999,-9999,N/A,29.49,2.0,Calm,Calm,-,N/A,,Clear,0,2012-12-18 12:56:00
4:16 AM,-45.4,-9999,N/A,29.48,2.0,Calm,Calm,-,N/A,,Clear,0,2012-12-18 13:16:00
4:36 AM,-45.4,-9999,N/A,29.48,1.5,Calm,Calm,-,N/A,,Clear,0,2012-12-18 13:36:00
4:56 AM,-45.4,-9999,N/A,29.47,2.0,Calm,Calm,-,N/A,,Clear,0,2012-12-18 13:56:00
5:16 AM,-45.4,-9999,N/A,29.47,2.0,Calm,Calm,-,N/A,,Clear,0,2012-12-18 14:16:00
5:36 AM,-45.4,-9999,N/A,29.46,4.0,Calm,Calm,-,N/A,,Clear,0,2012-12-18 14:36:00
5:56 AM,-45.4,-9999,N/A,29.46,3.0,Calm,Calm,-,N/A,,Clear,0,2012-12-18 14:56:00
6:16 AM,-43.6,-9999,N/A,29.46,1.5,Calm,Calm,-,N/A,,Clear,0,2012-12-18 15:16:00
6:36 AM,-45.4,-9999,N/A,29.45,3.0,Calm,Calm,-,N/A,,Clear,0,2012-12-18 15:36:00
6:56 AM,-43.6,-9999,N/A,29.45,1.8,Calm,Calm,-,N/A,,Clear,0,2012-12-18 15:56:00
7:16 AM,-45.4,-9999,N/A,29.45,3.0,Calm,Calm,-,N/A,,Clear,0,2012-12-18 16:16:00
7:36 AM,-41.8,-9999,N/A,29.44,1.0,Calm,Calm,-,N/A,,Clear,0,2012-12-18 16:36:00
7:56 AM,-41.8,-9999,N/A,29.44,4.0,Calm,Calm,-,N/A,,Clear,0,2012-12-18 16:56:00
8:16 AM,-41.8,-9999,N/A,29.43,2.5,Calm,Calm,-,N/A,,Clear,0,2012-12-18 17:16:00
8:36 AM,-41.8,-9999,N/A,29.43,5.0,Calm,Calm,-,N/A,,Clear,0,2012-12-18 17:36:00
8:56 AM,-41.8,-9999,N/A,29.43,2.0,Calm,Calm,-,N/A,,Clear,0,2012-12-18 17:56:00
9:16 AM,-40.0,-9999,N/A,29.43,1.5,Calm,Calm,-,N/A,,Clear,0,2012-12-18 18:16:00
9:36 AM,-41.8,-9999,N/A,29.43,2.0,Calm,Calm,-,N/A,,Clear,0,2012-12-18 18:36:00
9:56 AM,-40.0,-9999,N/A,29.43,1.8,Calm,Calm,-,N/A,,Clear,0,2012-12-18 18:56:00
10:16 AM,-38.2,-9999,N/A,29.43,3.0,Calm,Calm,-,N/A,,Clear,0,2012-12-18 19:16:00
10:36 AM,-38.2,-9999,N/A,29.43,1.8,Calm,Calm,-,N/A,,Clear,0,2012-12-18 19:36:00
10:56 AM,-36.4,-9999,N/A,29.42,3.0,Calm,Calm,-,N/A,,Clear,0,2012-12-18 19:56:00
11:16 AM,-36.4,-9999,N/A,29.42,9.0,Calm,Calm,-,N/A,,Clear,0,2012-12-18 20:16:00
11:36 AM,-36.4,-9999,N/A,29.42,10.0,Calm,Calm,-,N/A,,Clear,0,2012-12-18 20:36:00
12:16 PM,-34.6,-9999,N/A,29.43,10.0,Calm,Calm,-,N/A,,Clear,0,2012-12-18 21:16:00
12:36 PM,-34.6,-9999,N/A,29.43,10.0,Calm,Calm,-,N/A,,Clear,0,2012-12-18 21:36:00
12:56 PM,-36.4,-9999,N/A,29.43,8.0,Calm,Calm,-,N/A,,Clear,0,2012-12-18 21:56:00
1:16 PM,-36.4,-9999,N/A,29.43,7.0,Calm,Calm,-,N/A,,Clear,0,2012-12-18 22:16:00
1:36 PM,-36.4,-9999,N/A,29.44,10.0,Calm,Calm,-,N/A,,Clear,0,2012-12-18 22:36:00
1:56 PM,-36.4,-9999,N/A,29.44,10.0,Calm,Calm,-,N/A,,Clear,0,2012-12-18 22:56:00
2:16 PM,-36.4,-9999,N/A,29.44,10.0,Calm,Calm,-,N/A,,Clear,0,2012-12-18 23:16:00
2:36 PM,-36.4,-9999,N/A,29.44,3.0,Calm,Calm,-,N/A,,Clear,0,2012-12-18 23:36:00
2:56 PM,-36.4,-9999,N/A,29.43,5.0,Calm,Calm,-,N/A,,Clear,0,2012-12-18 23:56:00
3:16 PM,-34.6,-9999,N/A,29.43,10.0,Calm,Calm,-,N/A,,Clear,0,2012-12-19 00:16:00
3:36 PM,-34.6,-9999,N/A,29.43,10.0,Calm,Calm,-,N/A,,Clear,0,2012-12-19 00:36:00
3:56 PM,-36.4,-9999,N/A,29.43,10.0,Calm,Calm,-,N/A,,Clear,0,2012-12-19 00:56:00
4:16 PM,-34.6,-9999,N/A,29.44,10.0,Calm,Calm,-,N/A,,Clear,0,2012-12-19 01:16:00
4:36 PM,-36.4,-9999,N/A,29.43,10.0,Calm,Calm,-,N/A,,Clear,0,2012-12-19 01:36:00
4:56 PM,-36.4,-9999,N/A,29.44,9.0,Calm,Calm,-,N/A,,Clear,0,2012-12-19 01:56:00
5:16 PM,-36.4,-9999,N/A,29.44,10.0,Calm,Calm,-,N/A,,Clear,0,2012-12-19 02:16:00
5:36 PM,-34.6,-9999,N/A,29.45,10.0,Calm,Calm,-,N/A,,Clear,0,2012-12-19 02:36:00
5:56 PM,-36.4,-9999,N/A,29.45,10.0,Calm,Calm,-,N/A,,Clear,0,2012-12-19 02:56:00
6:16 PM,-36.4,-9999,N/A,29.46,10.0,Calm,Calm,-,N/A,,Clear,0,2012-12-19 03:16:00
6:36 PM,-36.4,-9999,N/A,29.46,10.0,Calm,Calm,-,N/A,,Clear,0,2012-12-19 03:36:00
6:56 PM,-36.4,-9999,N/A,29.47,10.0,Calm,Calm,-,N/A,,Clear,0,2012-12-19 03:56:00
7:16 PM,-36.4,-9999,N/A,29.47,10.0,Calm,Calm,-,N/A,,Clear,0,2012-12-19 04:16:00
7:36 PM,-36.4,-9999,N/A,29.48,10.0,Calm,Calm,-,N/A,,Clear,0,2012-12-19 04:36:00
7:56 PM,-34.6,-9999,N/A,29.48,10.0,Calm,Calm,-,N/A,,Partly Cloudy,0,2012-12-19 04:56:00
8:16 PM,-34.6,-9999,N/A,29.48,10.0,Calm,Calm,-,N/A,,Clear,0,2012-12-19 05:16:00
8:36 PM,-34.6,-9999,N/A,29.49,10.0,Calm,Calm,-,N/A,,Partly Cloudy,0,2012-12-19 05:36:00
8:56 PM,-34.6,-9999,N/A,29.50,10.0,Calm,Calm,-,N/A,,Partly Cloudy,0,2012-12-19 05:56:00
9:16 PM,-32.8,-9999,N/A,29.50,10.0,Calm,Calm,-,N/A,,Scattered Clouds,0,2012-12-19 06:16:00
9:36 PM,-32.8,-9999,N/A,29.50,10.0,Calm,Calm,-,N/A,,Scattered Clouds,0,2012-12-19 06:36:00
9:56 PM,-32.8,-9999,N/A,29.51,10.0,Calm,Calm,-,N/A,,Partly Cloudy,0,2012-12-19 06:56:00
10:16 PM,-32.8,-9999,N/A,29.52,10.0,Calm,Calm,-,N/A,,Partly Cloudy,0,2012-12-19 07:16:00
10:36 PM,-31.0,-9999,N/A,29.53,9.0,Calm,Calm,-,N/A,,Mostly Cloudy,0,2012-12-19 07:36:00
10:56 PM,-29.2,-9999,N/A,29.54,10.0,Calm,Calm,-,N/A,,Overcast,0,2012-12-19 07:56:00
11:16 PM,-27.4,-9999,N/A,29.55,10.0,Calm,Calm,-,N/A,,Overcast,0,2012-12-19 08:16:00
11:36 PM,-27.4,-9999,N/A,29.56,10.0,Calm,Calm,-,N/A,,Overcast,0,2012-12-19 08:36:00
11:56 PM,-27.4,-9999,N/A,29.57,10.0,Calm,Calm,-,N/A,,Overcast,0,2012-12-19 08:56:00